Overview Statistics Trail Chart Weather Telemetry Raw packets
 

This is the latest recevied weather packets stored in our database for station/object ES0THZ-13. If no packets are shown the sender has not sent any weather packets the latest 10 day(s).

<< 8 9 10 11 12 13 14 >>
Time Temp. Humidity Pressure Rain* Wind** Luminosity Snow
1788381779 16.67° C 87% 1003.8 hPa - - - -
1788380651 16.11° C 87% 1004.5 hPa - - - -
1788379626 16.11° C 86% 1005.5 hPa - - - -
1788378481 16.11° C 86% 1004.6 hPa - - - -
1788377434 16.11° C 86% 1005.3 hPa - - - -
1788376336 16.11° C 86% 1005.7 hPa - - - -
1788375276 16.11° C 85% 1005.3 hPa - - - -
1788374120 16.11° C 85% 1004.7 hPa - - - -
1788373076 16.11° C 85% 1005.1 hPa - - - -
1788372016 16.11° C 84% 1005.9 hPa - - - -
1788370940 16.67° C 84% 1004.9 hPa - - - -
1788369866 16.67° C 83% 1004.6 hPa - - - -
1788368800 17.22° C 82% 1005.9 hPa - - - -
1788367771 17.22° C 82% 1005.2 hPa - - - -
1788366716 17.78° C 81% 1005.7 hPa - - - -
1788365561 18.33° C 80% 1005.3 hPa - - - -
1788364560 18.33° C 80% 1005.9 hPa - - - -
1788363440 18.89° C 79% 1004.7 hPa - - - -
1788362380 20° C 79% 1005.6 hPa - - - -
1788361371 21.11° C 78% 1005.4 hPa - - - -
1788360360 18.89° C 80% 1005.3 hPa - - - -
1788359319 20° C 79% 1004.8 hPa - - - -
1788358286 21.67° C 77% 1005.2 hPa - - - -
1788357151 20.56° C 78% 1005 hPa - - - -
1788356083 23.33° C 76% 1005.1 hPa - - - -

* Rain since midnight (hover to see other rain measurements)
** Current wind speed in m/s (hover to see current wind gust speed)